Location: Bakov nad Jizerou
(50.4784°N, 14.9394°E)
Time: 23:27:46
(UTC+00:00)

ERS-1 Rocket - Pass Details

Date: 16 June 2021
Orbit: 752 x 758 km, 98.4° (Epoch: 23 July)

Event Time Altitude Azimuth Distance (km) Brightness Sun altitude
Exits shadow 21:24:38 - 201° (SSW) 2,382 5.1 -13.1°
Reaches altitude 10° 21:24:55 10° 203° (SSW) 2,284 5.1 -13.1°
Maximum altitude 21:29:21 31° 265° (W) 1,308 4.4 -13.4°
Drops below altitude 10° 21:33:51 10° 328° (NNW) 2,300 6.8 -13.7°
Sets 21:36:25 0° 338° (NNW) 3,230 8.3 -13.8°
